アトラス彗星

C/2018 V2 ( ATLAS )

English version
Home page
Updated on September 17, 2019

---------------------------------------------------------------------

・ プロフィール

発見日 2018年11月2日
発見光度 19.1等
発見者 Asteroid Terrestrial-impact Last Alert System (ATLAS) search program

・ 軌道要素

Epoch 2018 Nov. 18.0 TT = JDT 2458440.5                                         
T 2018 Nov. 26.99182 TT                                 Williams                
q   2.4748628            (2000.0)            P               Q                  
n   0.00765442     Peri.  318.66595     +0.78424559     +0.62012918             
a  25.4992788      Node   356.78995     +0.62032912     -0.78304946             
e   0.9029438      Incl.  159.11066     +0.01227341     -0.04767962             
P 129                                                                           
From 179 observations 2018 Oct. 18-2019 July 7, mean residual 0".6.             

・ 光度変化

        m1 = 14.2 + 5 logΔ + 10.0 log r

---------------------------------------------------------------------

軌道要素はM.P.E.C. 2019-Q03に掲載されたものです。
光度グラフはComet for Windowsで作成したものです。

---------------------------------------------------------------------

Copyright(C) Seiichi Yoshida (comet@aerith.net). All rights reserved.